Weather in Novoaleksandrovka

Russia / Tyumen Oblast     55°23′35″N   68°51′27″E
temp.,
°C
wind,
m/s
gust,
m/s
humid.,
%
clouds,
%
prec.,
mm/h
press.,
hPa
HPBL,
m
21 january, fri
fri2123:00−18ssw3793100 0.0 102990
02:00−16s3792100 0.0 1028112
05:00−16s3693100 0.0 1028106
08:00−15s2492100 0.0 102772
11:00−13sse2489100 0.0 1027101
14:00−11s239090 0.0 1026109
17:00−18s11975 0.0 10289
20:00−21s111005 0.0 10289
22 january, sat
sat2223:00−22ssw111005 0.0 10299
02:00−23sw1110051 0.0 10309
05:00−23ssw11100100 0.0 10309
08:00−22sse119997 0.0 10319
11:00−16s118918 0.0 103233
14:00−13se11865 0.0 103147
17:00−19ese11965 0.0 10339
20:00−22ese019819 0.0 10349
23 january, sun
sun2323:00−22e1110015 0.0 10359
02:00−23se1110032 0.0 10369
05:00−24n0010083 0.0 10369
08:00−24nne1110083 0.0 10379
11:00−17ene119252 0.0 103840
14:00−12e118766 0.0 103857
17:00−18wnw119688 0.0 10399
20:00−20nnw229762 0.0 10419
24 january, mon
mon2423:00−21n229969 0.0 10419
02:00−21nw1110070 0.0 10429
05:00−22nw2210057 0.0 104314
08:00−22nw1110059 0.0 10439
11:00−15nw22966 0.0 104450
14:00−11sw11925 0.0 104254
17:00−18wsw229917 0.0 10439
20:00−20wsw2210092 0.0 104314
25 january, tue
tue2523:00−16sw3496100 0.0 104164
02:00−15sw3795100 0.0 1040110
05:00−14sw3894100 0.0 1038159
08:00−13ssw41091100 0.0 1036206
11:00−12ssw41091100 0.0 1035255
14:00−10sw51090100 0.0 1032379
17:00−10sw4895100 0.3 1031359
20:00−11sw4795100 0.4 1030233